EUTELSAT 172B

Last updated on Nov. 13, 2019, 4:20 a.m. UTC

1 42741U 17029B   19316.53743524  .00000008  00000-0  00000+0 0  9997
2 42741   0.0147  96.2788 0000342 201.9585 118.6475  1.00272328  9557
UTC
Height (km)
Latitude
Longitude
Inclination
Orbital Period
UTC large
Height (km)
Speed (km/s)
/
Latitude / Longitude
Inclination (degrees)
Orbital Period (minutes)
Azimuth
Elevation
Range (km)
Doppler Factor
iOS Compass Heading
iOS Angle

Next 30 passes for location: Hong Kong

Rise time Rise Azimuth (degrees) Set time Set Azimuth (degrees) Duration Max altitude (degrees)

No matching passes for this satellites